When you browse on this site, cookies collect data to enhance your experience and personalize the content and advertising you see.
Visit our Privacy Policy to learn more. By continuing to use the site, you agree to this use of cookies and data.
  • In Austria
  • List of Countries
  • For 7 days
  • Water Temperature
  • Weather Map
  • News
  • Weather Widgets
  • user-avatar
    Login

    Hourly Weather Oruro

    Today, 21 February, Friday

    Time Temperature Precipitation Wind Pressure Humidity
    00:00 +8°C° 0.4 mm 2 mps 478 mmHg 75%
    01:00 +8°C° 0.4 mm 3 mps 477 mmHg 77%
    02:00 +8°C° 0.4 mm 3 mps 477 mmHg 78%
    09:00 +9°C° 0 mm 5 mps 479 mmHg 64%
    10:00 +10°C° 0 mm 5 mps 480 mmHg 59%
    11:00 +13°C° 0 mm 6 mps 481 mmHg 54%
    12:00 +14°C° 0.1 mm 6 mps 481 mmHg 51%
    13:00 +15°C° 0.1 mm 7 mps 481 mmHg 49%
    14:00 +16°C° 0.1 mm 7 mps 481 mmHg 46%
    15:00 +15°C° 0.1 mm 7 mps 480 mmHg 48%
    16:00 +15°C° 0.1 mm 7 mps 479 mmHg 49%
    17:00 +14°C° 0.1 mm 7 mps 479 mmHg 51%
    18:00 +12°C° 0 mm 7 mps 479 mmHg 57%
    19:00 +11°C° 0 mm 6 mps 478 mmHg 63%
    20:00 +9°C° 0 mm 5 mps 478 mmHg 68%
    21:00 +9°C° 0 mm 5 mps 478 mmHg 70%
    22:00 +10°C° 0 mm 4 mps 478 mmHg 71%
    23:00 +9°C° 0 mm 3 mps 479 mmHg 73%

    Tomorrow, 22 February, Saturday

    Time Temperature Precipitation Wind Pressure Humidity
    00:00 +9°C° 0.1 mm 3 mps 478 mmHg 73%
    01:00 +9°C° 0.1 mm 3 mps 478 mmHg 74%
    02:00 +8°C° 0.1 mm 2 mps 478 mmHg 74%
    03:00 +8°C° 0 mm 2 mps 477 mmHg 74%
    04:00 +8°C° 0 mm 2 mps 477 mmHg 74%
    05:00 +8°C° 0 mm 2 mps 477 mmHg 74%
    06:00 +8°C° 0 mm 2 mps 477 mmHg 72%
    07:00 +8°C° 0 mm 3 mps 478 mmHg 70%
    08:00 +8°C° 0 mm 3 mps 478 mmHg 67%
    09:00 +10°C° 0 mm 4 mps 479 mmHg 62%
    10:00 +11°C° 0 mm 4 mps 480 mmHg 57%
    11:00 +13°C° 0 mm 5 mps 481 mmHg 52%
    12:00 +14°C° 0 mm 5 mps 480 mmHg 49%
    13:00 +14°C° 0 mm 4 mps 480 mmHg 47%
    14:00 +15°C° 0 mm 4 mps 480 mmHg 44%
    15:00 +15°C° 0 mm 5 mps 480 mmHg 45%
    16:00 +15°C° 0 mm 5 mps 479 mmHg 45%
    17:00 +15°C° 0 mm 5 mps 479 mmHg 45%
    18:00 +14°C° 0 mm 5 mps 478 mmHg 52%
    19:00 +11°C° 0 mm 6 mps 478 mmHg 58%
    20:00 +10°C° 0 mm 6 mps 477 mmHg 64%
    21:00 +9°C° 0 mm 6 mps 477 mmHg 66%
    22:00 +9°C° 0 mm 5 mps 477 mmHg 68%
    23:00 +8°C° 0 mm 5 mps 477 mmHg 70%

    Day after tomorrow, 23 February, Sunday

    Time Temperature Precipitation Wind Pressure Humidity
    00:00 +8°C° 0 mm 4 mps 477 mmHg 71%
    01:00 +8°C° 0 mm 4 mps 477 mmHg 71%
    02:00 +8°C° 0 mm 3 mps 477 mmHg 71%
    03:00 +8°C° 0 mm 3 mps 476 mmHg 72%
    04:00 +8°C° 0 mm 2 mps 476 mmHg 74%
    05:00 +7°C° 0 mm 2 mps 476 mmHg 75%
    06:00 +8°C° 0 mm 2 mps 476 mmHg 73%
    07:00 +9°C° 0 mm 1 mps 477 mmHg 71%
    08:00 +9°C° 0 mm 1 mps 477 mmHg 69%
    09:00 +10°C° 0 mm 1 mps 478 mmHg 65%
    10:00 +10°C° 0 mm 2 mps 478 mmHg 61%
    11:00 +13°C° 0 mm 2 mps 479 mmHg 58%
    12:00 +14°C° 0 mm 2 mps 479 mmHg 53%
    13:00 +15°C° 0 mm 2 mps 479 mmHg 48%
    14:00 +16°C° 0 mm 1 mps 479 mmHg 43%
    15:00 +16°C° 0.1 mm 1 mps 479 mmHg 43%
    16:00 +16°C° 0.1 mm 1 mps 478 mmHg 43%
    17:00 +16°C° 0.1 mm 1 mps 478 mmHg 43%
    18:00 +15°C° 0.1 mm 2 mps 478 mmHg 49%
    19:00 +13°C° 0.1 mm 3 mps 477 mmHg 56%
    20:00 +12°C° 0.1 mm 3 mps 477 mmHg 62%
    21:00 +12°C° 0.1 mm 3 mps 477 mmHg 67%
    22:00 +11°C° 0.1 mm 3 mps 477 mmHg 71%
    23:00 +10°C° 0.1 mm 2 mps 477 mmHg 76%

    24 February, Monday

    Time Temperature Precipitation Wind Pressure Humidity
    00:00 +10°C° 0.4 mm 2 mps 477 mmHg 77%
    01:00 +10°C° 0.4 mm 2 mps 476 mmHg 78%
    02:00 +9°C° 0.4 mm 2 mps 476 mmHg 79%
    03:00 +9°C° 0.3 mm 2 mps 476 mmHg 78%
    04:00 +9°C° 0.3 mm 2 mps 476 mmHg 77%
    05:00 +9°C° 0.3 mm 2 mps 476 mmHg 77%
    06:00 +9°C° 0.1 mm 2 mps 476 mmHg 76%
    07:00 +10°C° 0.1 mm 2 mps 477 mmHg 74%
    08:00 +10°C° 0.1 mm 2 mps 477 mmHg 73%
    09:00 +12°C° 0.4 mm 2 mps 477 mmHg 68%
    10:00 +12°C° 0.4 mm 3 mps 478 mmHg 63%
    11:00 +13°C° 0.4 mm 3 mps 478 mmHg 58%
    12:00 +14°C° 0.7 mm 3 mps 478 mmHg 54%
    13:00 +16°C° 0.7 mm 3 mps 479 mmHg 49%
    14:00 +17°C° 0.7 mm 2 mps 479 mmHg 45%
    15:00 +17°C° 0.9 mm 3 mps 478 mmHg 47%
    16:00 +17°C° 0.9 mm 3 mps 477 mmHg 49%
    17:00 +15°C° 0.9 mm 4 mps 477 mmHg 51%
    18:00 +13°C° 2.6 mm 5 mps 476 mmHg 61%
    19:00 +10°C° 2.6 mm 6 mps 475 mmHg 71%
    20:00 +8°C° 2.6 mm 7 mps 474 mmHg 80%
    21:00 +8°C° 1.2 mm 6 mps 475 mmHg 81%
    22:00 +8°C° 1.2 mm 4 mps 475 mmHg 82%
    23:00 +8°C° 1.2 mm 3 mps 475 mmHg 82%

    25 February, Tuesday

    Time Temperature Precipitation Wind Pressure Humidity
    00:00 +8°C° 0.4 mm 3 mps 475 mmHg 82%
    01:00 +8°C° 0.4 mm 2 mps 475 mmHg 82%
    02:00 +8°C° 0.4 mm 2 mps 475 mmHg 82%
    03:00 +8°C° 0 mm 2 mps 475 mmHg 82%
    04:00 +9°C° 0 mm 1 mps 474 mmHg 83%
    05:00 +8°C° 0 mm 1 mps 474 mmHg 84%
    06:00 +9°C° 0 mm 1 mps 475 mmHg 82%
    07:00 +9°C° 0 mm 1 mps 475 mmHg 79%
    08:00 +9°C° 0 mm 1 mps 476 mmHg 77%
    09:00 +10°C° 0 mm 2 mps 476 mmHg 70%
    10:00 +12°C° 0 mm 2 mps 477 mmHg 63%
    11:00 +14°C° 0 mm 2 mps 478 mmHg 57%
    12:00 +15°C° 0.3 mm 2 mps 478 mmHg 52%
    13:00 +16°C° 0.3 mm 3 mps 478 mmHg 47%
    14:00 +18°C° 0.3 mm 3 mps 479 mmHg 43%
    15:00 +18°C° 0.4 mm 3 mps 478 mmHg 42%
    16:00 +18°C° 0.4 mm 3 mps 478 mmHg 41%
    17:00 +18°C° 0.4 mm 2 mps 477 mmHg 40%
    18:00 +16°C° 0.4 mm 3 mps 477 mmHg 48%
    19:00 +14°C° 0.4 mm 3 mps 477 mmHg 55%
    20:00 +12°C° 0.4 mm 3 mps 476 mmHg 63%
    21:00 +12°C° 0.6 mm 3 mps 477 mmHg 63%
    22:00 +13°C° 0.6 mm 2 mps 477 mmHg 64%
    23:00 +13°C° 0.6 mm 2 mps 478 mmHg 64%

    26 February, Wednesday

    Time Temperature Precipitation Wind Pressure Humidity
    00:00 +12°C° 0.4 mm 2 mps 477 mmHg 67%
    01:00 +10°C° 0.4 mm 3 mps 477 mmHg 69%
    02:00 +9°C° 0.4 mm 3 mps 476 mmHg 72%
    03:00 +9°C° 0.2 mm 3 mps 476 mmHg 74%
    04:00 +8°C° 0.2 mm 2 mps 475 mmHg 75%
    05:00 +8°C° 0.2 mm 2 mps 475 mmHg 77%
    06:00 +8°C° 0.1 mm 2 mps 476 mmHg 75%
    07:00 +9°C° 0.1 mm 2 mps 476 mmHg 72%
    08:00 +9°C° 0.1 mm 2 mps 477 mmHg 70%
    09:00 +12°C° 0 mm 2 mps 478 mmHg 63%
    10:00 +12°C° 0 mm 3 mps 478 mmHg 57%
    11:00 +14°C° 0 mm 3 mps 479 mmHg 50%
    12:00 +14°C° 0.1 mm 3 mps 479 mmHg 47%
    13:00 +16°C° 0.1 mm 3 mps 479 mmHg 44%
    14:00 +17°C° 0.1 mm 3 mps 479 mmHg 41%
    15:00 +17°C° 0.2 mm 3 mps 478 mmHg 40%
    16:00 +17°C° 0.2 mm 2 mps 478 mmHg 39%
    17:00 +18°C° 0.2 mm 2 mps 478 mmHg 37%
    18:00 +16°C° 0.1 mm 3 mps 478 mmHg 44%
    19:00 +14°C° 0.1 mm 3 mps 477 mmHg 51%
    20:00 +13°C° 0.1 mm 4 mps 477 mmHg 57%
    21:00 +12°C° 1.2 mm 4 mps 477 mmHg 64%
    22:00 +11°C° 1.2 mm 3 mps 477 mmHg 70%
    23:00 +10°C° 1.2 mm 3 mps 477 mmHg 77%
    Show more